Tampa, FL

3:10 PM EST on January 20, 2017 (GMT -0500)
MacDill Air Force Base

Weather History for KMCF - October, 2013

Change the Weather History Date:

Sunday, October 13, 2013

  Actual Average Record
Temperature  
Mean Temperature 76 °F -  
Max Temperature 90 °F 82 °F 91 °F (2001)
Min Temperature 63 °F 66 °F 62 °F (2000)
Cooling Degree Days 11    
Growing Degree Days 26 (Base 50)    
Moisture  
Dew Point 64 °F    
Average Humidity 71    
Maximum Humidity 97    
Minimum Humidity 43    
Precipitation  
Precipitation 0.00 in - - ()
Sea Level Pressure  
Sea Level Pressure 30.05 in    
Wind  
Wind Speed 5 mph (ENE)    
Max Wind Speed 8 mph    
Max Gust Speed -    
Visibility 10 miles    
Events      
Averages and records for this station are not official NWS values.
T = Trace of Precipitation, MM = Missing Value Source: NWS Daily Summary

Daily Weather History Graph

Daily Weather History Graph

Search for Another Location

Airport or City:

Trip Planner

Search our weather history database for the weather conditions in past years. The results will help you decide how hot, cold, wet, or windy it might be!

Date:

Astronomy

Oct. 13, 2013 Rise Set
Actual Time 7:29 AM EDT 7:02 PM EDT
Civil Twilight 7:05 AM EDT 7:26 PM EDT
Nautical Twilight 6:38 AM EDT 7:53 PM EDT
Astronomical Twilight 6:11 AM EDT 8:20 PM EDT
Moon 3:28 PM EDT (10/13) 2:05 AM EDT (10/13)
Length of Visible Light 12h 20m
Length of Day
11h 33m
Waxing Gibbous, 69% of the Moon is Illuminated
Oct 13
Waxing Gibbous
Oct 18
Full
Oct 26
Last Quarter
Nov 3
New
Nov 10
First Quarter

Hourly Weather History & Observations

Time (EDT) Temp. Heat Index Dew Point Humidity Pressure Visibility Wind Dir Wind Speed Gust Speed Precip Events Conditions
12:58 AM 67.8 °F - 61.0 °F 79% 30.05 in 10.0 mi NNE 4.6 mph - N/A   Clear
1:58 AM 67.3 °F - 62.4 °F 84% 30.05 in 10.0 mi East 5.8 mph - N/A   Clear
2:58 AM 64.9 °F - 62.6 °F 92% 30.05 in 10.0 mi ENE 5.8 mph - N/A   Clear
3:58 AM 65.8 °F - 63.9 °F 93% 30.02 in 10.0 mi ENE 3.5 mph - N/A   Clear
4:58 AM 64.6 °F - 63.1 °F 95% 30.02 in 10.0 mi ENE 2.3 mph - N/A   Clear
5:58 AM 63.5 °F - 61.9 °F 94% 30.03 in 10.0 mi ENE 3.5 mph - N/A   Clear
6:58 AM 64.2 °F - 63.3 °F 97% 30.05 in 10.0 mi ENE 6.9 mph - N/A   Clear
7:58 AM 64.0 °F - 63.0 °F 96% 30.06 in 10.0 mi East 5.8 mph - N/A   Clear
8:58 AM 72.5 °F - 71.6 °F 97% 30.08 in 10.0 mi East 5.8 mph - N/A   Clear
9:58 AM 78.4 °F - 71.8 °F 80% 30.09 in 10.0 mi East 5.8 mph - N/A   Clear
10:58 AM 80.8 °F 85.1 °F 72.1 °F 75% 30.10 in 10.0 mi East 5.8 mph - N/A   Clear
11:58 AM 85.1 °F 86.9 °F 65.1 °F 51% 30.11 in 10.0 mi ENE 4.6 mph - N/A   Clear
12:58 PM 85.5 °F 86.3 °F 63.0 °F 47% 30.09 in 10.0 mi Variable 1.2 mph - N/A   Mostly Cloudy
1:58 PM 86.9 °F 88.3 °F 64.6 °F 47% 30.07 in 10.0 mi Variable 1.2 mph - N/A   Partly Cloudy
2:58 PM 89.4 °F 90.8 °F 64.2 °F 43% 30.04 in 10.0 mi West 4.6 mph - N/A   Scattered Clouds
3:58 PM 88.3 °F 89.5 °F 63.7 °F 44% 30.02 in 10.0 mi Variable 1.2 mph - N/A   Clear
4:58 PM 86.5 °F 86.8 °F 61.5 °F 43% 30.01 in 10.0 mi ESE 8.1 mph - N/A   Clear
5:58 PM 84.7 °F 85.2 °F 61.9 °F 46% 30.01 in 10.0 mi ENE 4.6 mph - N/A   Scattered Clouds
6:58 PM 79.5 °F - 62.1 °F 55% 30.02 in 10.0 mi ENE 5.8 mph - N/A   Clear
7:58 PM 75.9 °F - 62.2 °F 62% 30.04 in 10.0 mi ENE 6.9 mph - N/A   Clear
8:58 PM 73.6 °F - 62.6 °F 68% 30.05 in 10.0 mi ENE 5.8 mph - N/A   Clear
9:58 PM 72.9 °F - 61.9 °F 68% 30.07 in 10.0 mi NNE 6.9 mph - N/A   Clear
10:58 PM 71.4 °F - 63.7 °F 76% 30.08 in 10.0 mi East 4.6 mph - N/A   Clear
11:58 PM 69.3 °F - 63.7 °F 82% 30.08 in 10.0 mi East 5.8 mph - N/A   Clear